www.pogodaiklimat.ru

Погода и климат >> Архив погоды >> Австрия >> Брегенц


ПОГОДА в Брегенце

  • Прогноз погоды в Брегенце
  • Монитор погоды в Брегенце

АРХИВ ПОГОДЫ в Брегенце

Время (UTC), дата Ветер
(напр.,м/с)
 
Видим.   Явления Облачность Т
(С)
Тd
(С)
f
(%)
Тe
(С)
Тes
(С)
Комфортность P
(гПа)
Po
(гПа)
Тmin
(С)
Tmax
(С)
R
(мм)
R24
(мм)
S
(см)
01 9.06 штиль 0 н/о н/о +12.1 +6.8 70 +12 +12 1023.8 972.0
02 9.06 В 1 н/о н/о +11.5 +6.9 73 +11 +11 1023.5 971.6
03 9.06 штиль 0 н/о н/о +11.0 +6.9 76 +10 +10 1024.0 972.0
04 9.06 В 1 н/о н/о +11.3 +7.4 77 +11 +11 1023.5 971.6
05 9.06 Ю 1 30 км 6/0
[Ac lent Ci fib]
+12.5 +7.8 73 +13 +14 1023.3 971.6 +11.2 +12.5
06 9.06 штиль 0 н/о н/о +14.0 +7.1 63 +14 +14 1022.8 971.4 +10.7 +20.5
07 9.06 СЗ 1 н/о н/о +16.2 +8.3 59 +17 +17 1021.7 970.8
08 9.06 СЗ 1 н/о н/о +16.9 +8.4 57 +18 +18 1021.3 970.5
09 9.06 СЗ 1 30 км 10/0
[Ac lent Ci sp]
+17.2 +9.6 61 +18 +29 1020.9 970.2
10 9.06 СЗ 2 н/о н/о +17.0 +10.4 65 +17 +17 1021.0 970.3
11 9.06 СЗ 3 н/о н/о +17.2 +8.9 58 +17 +17 1021.2 970.5
12 9.06 СЗ 2 15 км слаб. дождь 10/6 1200 м
[Frnb Ac As]
+18.1 +9.2 56 +19 +21 1020.5 970.0 0.0
13 9.06 СЗ 2 н/о н/о +19.0 +9.3 53 +20 +20 1020.3 969.9
14 9.06 З 1 н/о н/о +17.8 +9.0 56 +19 +19 1021.3 970.7 0.0
15 9.06 штиль 0 н/о в посл. час осадки н/о +18.6 +11.2 62 +19 +19 1021.3 970.8 0.0
16 9.06 СЗ 2 н/о н/о +18.8 +10.4 58 +20 +20 1020.7 970.3 0.0
17 9.06 СЗ 1 н/о н/о +18.2 +12.2 68 +20 +20 1019.7 969.3 0.0
18 9.06 ЮЗ 1 н/о {осадки} н/о +18.8 +13.0 69 +21 +21 комфорт 1018.2 968.0 +14.0 +19.1 0.0
19 9.06 Ю 2 н/о н/о +18.3 +12.5 69 +19 +19 1018.0 967.7
20 9.06 В 1 н/о н/о +16.3 +12.0 76 +17 +17 1018.3 967.6
21 9.06 В 2 н/о н/о +14.7 +11.3 80 +14 +14 1017.9 966.9
22 9.06 В 1 н/о н/о +14.6 +11.0 79 +15 +15 1016.9 966.0
23 9.06 В 2 н/о н/о +14.3 +11.4 83 +14 +14 1017.0 966.0
00 10.06 Ю 1 н/о осадки н/о +14.7 +12.8 88 +15 +15 1016.6 965.7 0.2
01 10.06 Ю 1 н/о ливневой дождь н/о +14.4 +13.2 92 +15 +15 1016.6 965.7 0.3
02 10.06 С 1 н/о н/о +14.4 +13.4 94 +15 +15 1016.4 965.5 5
03 10.06 СЗ 1 н/о {ливн. осадки} н/о +14.3 +13.3 94 +15 +15 1016.7 965.8 6
04 10.06 В 1 н/о н/о +14.0 +13.0 94 +14 +14 1016.5 965.5
05 10.06 В 2 10 км слаб. дождь {морось} 10/10 900 м
[Sc]
+13.9 +13.2 96 +13 +13 1015.5 964.6 +13.7 +14.0 0.4
06 10.06 Ю 2 6000 м гроза, ливневой дождь {морось} 10/10 900 м
[Cb cap]
+14.2 +13.4 95 +14 +14 1017.0 966.0 +13.7 +18.8 7
07 10.06 Ю 1 н/о осадки н/о +14.4 +13.5 94 +15 +15 1016.8 965.9 3
08 10.06 штиль 0 н/о ливневой дождь {осадки} н/о +14.9 +13.2 90 +15 +15 1016.4 965.6 2
09 10.06 С 1 10 км {гроза, дождь} 8/1 900 м
[Sc Ac cuf Ci fib]
+17.3 +14.2 82 +18 +27 1014.8 964.5 5
10 10.06 СЗ 2 н/о н/о +18.3 +13.3 73 +19 +19 1013.8 963.7
11 10.06 СЗ 3 н/о осадки н/о +19.1 +14.4 74 +21 +21 комфорт 1012.8 962.9 0.0
12 10.06 З 3 н/о {гроза} н/о +18.8 +14.4 76 +20 +25 1011.7 961.8 5
13 10.06 З 1 н/о н/о +17.2 +14.3 83 +18 +18 1012.7 962.5 0.0
14 10.06 СЗ 3 н/о н/о +16.2 +14.7 91 +16 +16 1013.1 962.7 7
15 10.06 штиль 0 н/о {ливн. осадки} н/о +16.6 +13.4 81 +16 +16 1012.5 962.2 7
16 10.06 С 3 н/о ливневой дождь н/о +16.9 +15.1 89 +17 +17 1009.2 959.1 0.6
17 10.06 З 3 н/о н/о +17.1 +15.1 88 +17 +17 1012.0 961.8 0.0
18 10.06 С 1 н/о {ливн. осадки} н/о +16.0 +14.1 88 +17 +17 1012.6 962.2 +14.0 +20.4 12
19 10.06 В 1 н/о н/о +15.7 +14.4 92 +16 +16 1012.6 962.1
20 10.06 штиль 0 н/о осадки н/о +15.3 +14.5 95 +15 +15 1012.6 962.1 0.1
21 10.06 ЮВ 1 н/о ливневой дождь {осадки} н/о +15.1 +14.3 95 +16 +16 1012.0 961.5 0.9
22 10.06 ЮЗ 2 н/о осадки н/о +15.1 +14.3 95 +15 +15 1011.7 961.2 0.7
23 10.06 штиль 0 н/о осадки н/о +14.3 +13.6 96 +14 +14 1012.7 962.0 2
00 11.06 В 1 н/о осадки {ливн. осадки} н/о +14.3 +13.5 95 +15 +15 1012.8 962.1 5
01 11.06 штиль 0 н/о осадки н/о +13.7 +12.9 95 +13 +13 1013.8 962.9 3
02 11.06 СВ 2 н/о осадки н/о +12.6 +11.5 93 +12 +12 1014.8 963.6 4
03 11.06 В 3 н/о осадки н/о +11.8 +10.9 94 +10 +10 1014.4 963.1 10
04 11.06 В 6 н/о в посл. час осадки н/о +11.9 +9.6 86 +9 +9 1012.1 960.9 0.9
05 11.06 Ю 4 25 км {дождь} 1/1 600 м
[St]
+11.9 +10.0 88 +10 +11 1010.8 959.7 +11.9 +12.5
06 11.06 СВ 1 25 км {дождь} 1/1 900 м
[Sc]
+13.6 +11.1 85 +14 +18 1010.4 959.6 +11.7 +16.0 16
07 11.06 СЗ 1 н/о н/о +15.4 +11.5 78 +16 +16 1009.4 959.0
08 11.06 З 1 н/о н/о +16.6 +11.5 72 +17 +17 1009.1 958.9
09 11.06 СЗ 2 20 км 8/8 900 м
[Sc]
+16.5 +11.6 73 +17 +19 1008.7 958.5
10 11.06 СЗ 2 н/о н/о +17.6 +11.4 67 +18 +18 1008.5 958.5
11 11.06 СЗ 2 н/о н/о +18.0 +12.0 68 +19 +19 1008.4 958.5
12 11.06 З 2 25 км 6/6
[Sc Ci fib]
+18.6 +12.8 69 +20 +27 1008.4 958.6
13 11.06 З 3 н/о н/о +19.0 +12.9 68 +20 +20 1008.6 958.9
14 11.06 СЗ 3 н/о н/о +17.9 +13.4 75 +18 +18 1009.1 959.2
15 11.06 С 2 н/о н/о +17.1 +13.1 77 +17 +17 1009.6 959.5
16 11.06 С 1 н/о н/о +16.9 +13.0 78 +18 +18 1009.7 959.6
17 11.06 СВ 1 н/о н/о +16.5 +13.3 81 +17 +17 1010.0 959.8
18 11.06 СЗ 1 н/о н/о +16.6 +13.0 79 +17 +17 1010.2 960.0 +13.1 +19.6
19 11.06 СЗ 2 н/о н/о +15.0 +13.8 93 +15 +15 1010.5 960.0 0.0
20 11.06 СЗ 1 н/о в посл. час осадки н/о +14.8 +14.0 95 +15 +15 1010.6 960.1 0.1
21 11.06 штиль 0 н/о ливневой дождь {осадки} н/о +14.6 +13.9 96 +14 +14 1010.4 959.9 0.3
22 11.06 штиль 0 н/о в посл. час осадки н/о +14.7 +13.8 94 +14 +14 1010.5 960.0 0.1
23 11.06 штиль 0 н/о осадки н/о +14.4 +13.7 96 +14 +14 1009.4 958.9 0.1
00 12.06 Ю 1 н/о ливневой дождь н/о +14.7 +14.0 96 +15 +15 1008.4 958.0 2
01 12.06 СЗ 1 н/о осадки н/о +14.6 +14.0 96 +15 +15 1007.8 957.4 5
02 12.06 СВ 1 н/о ливневой дождь н/о +14.4 +13.9 97 +15 +15 1007.9 957.4 1
03 12.06 В 1 н/о в посл. час осадки {ливн. осадки} н/о +14.5 +14.0 97 +15 +15 1007.4 957.0 6
04 12.06 ЮЗ 1 н/о осадки н/о +14.6 +14.0 96 +15 +15 1007.7 957.3 0.3
05 12.06 ЮЗ 1 5000 м слаб. дождь 10/10 240 м
[Frnb]
+14.8 +14.1 96 +15 +15 1007.4 957.0 +14.5 +14.8 0.3
06 12.06 штиль 0 5000 м слаб. дождь 10/10 240 м
[Frnb]
+14.8 +14.1 96 +14 +14 1008.1 957.7 +14.3 +16.6 9
07 12.06 З 2 н/о в посл. час осадки н/о +14.8 +13.7 93 +14 +14 1008.8 958.4 0.3
08 12.06 З 4 н/о осадки н/о +13.2 +11.3 88 +11 +11 1011.3 960.4 0.1
09 12.06 СЗ 5 3000 м дождь 10/10 240 м
[Frnb]
+12.6 +11.0 90 +10 +10 1013.2 962.1 2
10 12.06 С 2 н/о осадки н/о +12.9 +10.9 88 +12 +12 1013.1 962.1 2
11 12.06 В 1 н/о осадки н/о +14.2 +12.5 90 +14 +14 1012.5 961.8 2
12 12.06 СЗ 1 н/о туман на расстоянии {дождь} н/о +14.0 +11.7 86 +14 +28 опасность
простуды
1012.9 962.1 5
13 12.06 СЗ 2 н/о в посл. час осадки н/о +16.3 +11.4 73 +16 +16 1012.2 961.8 0.1
14 12.06 СЗ 2 н/о н/о +17.7 +9.4 58 +18 +18 1012.0 961.8
15 12.06 З 2 н/о {осадки} н/о +19.4 +10.7 57 +21 +21 комфорт 1011.2 961.4 0.1
16 12.06 СЗ 2 н/о н/о +19.8 +9.8 52 +22 +22 комфорт 1011.0 961.2
17 12.06 СЗ 2 н/о н/о +19.7 +9.5 52 +21 +21 комфорт 1011.1 961.3
18 12.06 СЗ 1 н/о {осадки} н/о +19.3 +9.4 53 +21 +21 комфорт 1011.5 961.6 +12.4 +20.4 5
19 12.06 В 1 н/о н/о +17.5 +11.7 69 +19 +19 1012.3 962.1
20 12.06 ЮВ 2 н/о н/о +15.2 +11.5 79 +15 +15 1012.8 962.2
21 12.06 В 1 н/о н/о +14.3 +11.1 81 +15 +15 1013.5 962.7 0.0
22 12.06 В 1 н/о н/о +13.4 +10.8 84 +14 +14 1013.9 962.9
23 12.06 ЮВ 1 н/о н/о +12.7 +10.3 85 +13 +13 1014.4 963.3
00 13.06 ЮВ 1 н/о н/о +12.2 +10.3 88 +12 +12 1014.5 963.3 0.0
01 13.06 штиль 0 н/о н/о +12.0 +10.7 92 +11 +11 1014.6 963.3
02 13.06 ЮВ 1 н/о н/о +11.5 +10.4 93 +11 +11 1015.0 963.6
03 13.06 ЮВ 1 н/о н/о +12.2 +10.6 90 +12 +12 1015.1 963.8
04 13.06 Ю 2 н/о н/о +12.8 +11.1 89 +12 +12 1015.3 964.1
05 13.06 ЮВ 1 15 км 6/6 1500 м
[Sc Ci fib]
+13.5 +11.5 88 +14 +14 1015.2 964.2 +12.8 +13.5
06 13.06 Ю 1 15 км 9/5 1500 м
[Sc Ac trans]
+14.3 +11.6 84 +15 +16 1015.3 964.4 +11.4 +19.3 0.0
07 13.06 Ю 1 н/о н/о +16.2 +11.9 76 +17 +17 1015.0 964.5
08 13.06 СЗ 2 н/о н/о +16.9 +11.6 71 +17 +17 1014.7 964.3
09 13.06 СЗ 2 18 км 1/1 1050 м
[Cu hum]
+17.9 +11.4 66 +18 +31 опасность
простуды
1014.4 964.2
10 13.06 СЗ 2 н/о н/о +18.7 +10.8 60 +20 +20 1014.3 964.2
11 13.06 СЗ 2 н/о н/о +19.2 +9.7 54 +21 +21 комфорт 1014.2 964.2
12 13.06 С 2 20 км 1/1 900 м
[Cu hum]
+19.9 +11.1 57 +22 +38 комфорт 1013.9 964.0
13 13.06 СЗ 2 н/о н/о +20.9 +11.5 55 +24 +24 комфорт 1013.5 963.8
14 13.06 СЗ 2 н/о н/о +21.8 +10.3 48 +24 +24 комфорт 1013.3 963.7
15 13.06 СЗ 2 н/о н/о +22.7 +8.7 41 +24 +24 комфорт 1012.9 963.5
16 13.06 СЗ 2 н/о н/о +22.7 +9.6 43 +24 +24 комфорт 1013.2 963.8
17 13.06 СЗ 2 н/о н/о +22.3 +9.7 45 +24 +24 комфорт 1013.6 964.1
18 13.06 штиль 0 н/о н/о +21.7 +11.5 52 +24 +24 комфорт 1014.2 964.6 +14.2 +23.5
19 13.06 В 1 н/о н/о +19.5 +12.3 63 +22 +22 комфорт 1014.8 964.8
20 13.06 В 2 н/о н/о +16.9 +11.3 70 +17 +17 1015.6 965.1
21 13.06 В 3 н/о н/о +17.8 +11.3 66 +18 +18 1015.4 965.1
22 13.06 В 3 н/о н/о +18.1 +11.2 64 +18 +18 1015.9 965.6
23 13.06 В 1 н/о н/о +15.5 +11.8 79 +16 +16 1016.4 965.7
00 14.06 В 1 н/о н/о +14.3 +11.8 85 +15 +15 1016.4 965.5
01 14.06 С 1 н/о н/о +14.0 +11.7 86 +14 +14 1016.3 965.3
02 14.06 штиль 0 н/о н/о +13.3 +11.7 90 +13 +13 1016.0 964.9
03 14.06 Ю 1 н/о н/о +12.8 +11.5 92 +13 +13 1016.0 964.8
04 14.06 Ю 1 н/о н/о +12.6 +11.5 93 +13 +13 1015.8 964.6
05 14.06 ЮВ 1 20 км 3/0
[Ci fib]
+13.4 +12.1 92 +14 +15 1015.1 964.1 +12.5 +13.5
06 14.06 штиль 0 20 км 1/0
[Ac lent Ci fib]
+16.4 +12.1 76 +16 +21 1014.7 964.2 +12.5 +21.6
07 14.06 СЗ 1 н/о н/о +18.8 +12.5 67 +21 +21 комфорт 1014.9 964.8
08 14.06 З 2 н/о н/о +20.2 +12.4 61 +23 +23 комфорт 1014.5 964.7
09 14.06 СЗ 2 20 км 3/0
[Ac lent Ci fib]
+17.9 +13.2 74 +18 +31 опасность
простуды
1015.5 965.2
10 14.06 С 1 н/о н/о +20.5 +11.5 56 +23 +23 комфорт 1015.7 965.8
11 14.06 СЗ 2 н/о н/о +21.3 +12.1 56 +23 +23 комфорт 1016.5 966.7
12 14.06 С 1 20 км 9/0
[Ac As]
+23.0 +12.0 50 +26 +33 жарко 1015.7 966.3
13 14.06 В 1 н/о н/о +23.9 +12.4 49 +26 +26 жарко 1014.8 965.5
14 14.06 СЗ 2 н/о н/о +26.2 +10.3 37 +27 +27 жарко 1013.2 964.4
15 14.06 СЗ 2 н/о н/о +25.3 +10.7 40 +26 +26 жарко 1012.3 963.4
16 14.06 штиль 0 н/о н/о +25.3 +12.8 46 +27 +27 жарко 1011.5 962.6
17 14.06 штиль 0 н/о н/о +23.3 +16.4 65 +28 +28 душно 1010.3 961.2
18 14.06 В 2 н/о н/о +22.4 +16.0 67 +27 +27 душно 1010.4 961.2 +15.6 +26.4
19 14.06 СЗ 1 н/о н/о +21.6 +16.3 72 +25 +25 комфорт 1010.0 960.7
20 14.06 ЮВ 2 н/о н/о +20.2 +15.6 75 +23 +23 комфорт 1010.9 961.3
21 14.06 СЗ 1 н/о н/о +22.4 +14.6 61 +26 +26 жарко 1010.0 960.8
22 14.06 ЮВ 2 н/о н/о +20.2 +14.7 71 +23 +23 комфорт 1010.4 960.8
23 14.06 штиль 0 н/о н/о +21.2 +12.1 56 +23 +23 комфорт 1010.5 961.0
00 15.06 В 3 н/о н/о +22.6 +11.3 49 +25 +25 комфорт 1009.3 960.1
01 15.06 В 2 н/о н/о +21.3 +13.1 59 +24 +24 комфорт 1008.6 959.2
02 15.06 ЮВ 4 н/о н/о +23.1 +10.7 46 +25 +25 комфорт 1008.0 958.9
03 15.06 ЮВ 4 н/о н/о +23.5 +10.2 43 +25 +25 комфорт 1008.7 959.6
04 15.06 СЗ 3 н/о н/о +21.4 +12.3 56 +24 +24 комфорт 1012.0 962.5
05 15.06 СЗ 4 н/о н/о +19.0 +13.6 71 +20 +20 1013.4 963.4
06 15.06 СЗ 3 н/о н/о +20.1 +13.2 64 +22 +22 комфорт 1014.0 964.2 +18.8 +24.3
07 15.06 СЗ 2 н/о н/о +20.2 +13.2 64 +23 +23 комфорт 1014.6 964.8
08 15.06 СЗ 2 н/о н/о +20.5 +13.1 62 +23 +23 комфорт 1015.0 965.2
09 15.06 СЗ 2 н/о н/о +21.6 +13.3 59 +24 +24 комфорт 1015.2 965.6
10 15.06 СЗ 2 н/о н/о +21.1 +13.6 62 +24 +24 комфорт 1015.3 965.6
11 15.06 СЗ 3 н/о н/о +21.8 +13.8 60 +25 +25 комфорт 1015.3 965.7
12 15.06 З 3 н/о н/о +22.0 +13.6 59 +25 +25 комфорт 1015.4 965.8
13 15.06 СЗ 2 н/о н/о +21.9 +12.7 56 +24 +24 комфорт 1015.1 965.5
14 15.06 штиль 0 н/о н/о +22.7 +11.1 48 +25 +25 комфорт 1014.7 965.2
15 15.06 З 2 н/о н/о +24.3 +11.0 43 +26 +26 жарко 1013.8 964.6
16 15.06 З 2 н/о н/о +23.3 +9.7 42 +25 +25 комфорт 1013.0 963.7
17 15.06 СЗ 2 н/о н/о +23.3 +9.7 42 +25 +25 комфорт 1012.7 963.4
18 15.06 СВ 1 н/о н/о +21.5 +12.8 58 +24 +24 комфорт 1013.0 963.5 +19.7 +24.7
19 15.06 штиль 0 н/о н/о +20.6 +13.6 64 +23 +23 комфорт 1012.9 963.2
20 15.06 ЮЗ 3
{18}
н/о осадки н/о +16.9 +13.2 79 +17 +17 1018.8 968.2 2
21 15.06 С 2
{18}
н/о {осадки} н/о +15.1 +13.7 91 +15 +15 1020.5 969.5 14
22 15.06 СВ 2 н/о в посл. час осадки н/о +14.3 +13.2 93 +14 +14 1020.4 969.3 0.3
23 15.06 В 1 н/о в посл. час осадки н/о +14.1 +13.2 94 +14 +14 1020.3 969.2 0.0
00 16.06 ЮВ 1
{18}
н/о осадки {ливн. осадки} н/о +13.7 +13.0 96 +14 +14 1020.8 969.6 15

 

Местоположение метеостанции Брегенц (Австрия): широта 47.50 долгота 9.75 высота над уровнем моря 439 м.

В архиве по умолчанию представлена погода в Брегенце за последнюю неделю. Архивные данные за месяц целиком и за предыдущие месяцы, начиная с января 2011 года, Вы можете получить, выбрав интересующий диапазон дат из раскрывающегося списка и нажав кнопку "Ввод!".


*Определитесь, кто Вы:
робот инопланетянин человек

Внимание! Время в таблицах - всемирное. Для получения местного времени необходимо прибавить поправку, которая равна 1 ч.

Смотрите также архив погоды в соседних городах и на ближайших метеорологических станциях:

Погода в Дорнбирне (Австрия) (8 км)
Погода в Альбершвенде (Австрия) (9 км)
Погода в Санкт-Галлен-Альтенрайне (Швейцария) (14 км)
Погода в Фельдкирхе (Австрия) (27 км)
Погода в Санкт-Галлене (Швейцария) (27 км)
Погода в Гуттингене (Швейцария) (37 км)
Погода в Бишофсцелле (Швейцария) (39 км)
Погода в Херлацхофене (Германия) (39 км)
Погода на Зентисе (Швейцария) (41 км)
Погода в Оберстдорфе (Германия) (41 км)

Пояснения к столбцам:

Ветер - указаны скорость ветра в м/с - средняя за 10 мин, порывы в срок и между сроками (в фигурных скобках) и направление, откуда дует ветер: С - северный, СВ - северо-восточный, В - восточный, ЮВ - юго-восточный, Ю - южный, ЮЗ - юго-западный, З - западный, СЗ - северо-западный.
Видимость - горизонтальная дальность видимости в метрах или километрах. При видимости от 1 до 10 км при отсутствии осадков обычно наблюдается дымка, при ухудшении видимости до 1 км и менее - туман. В сухую погоду видимость может ухудшаться дымом, пылью или мглою.
Явления - указаны атмосферные явления, наблюдавшиеся в срок или в последний час перед сроком; фигурными скобками обозначены явления, наблюдавшиеся между сроками (за 1-3 часа до срока); квадратными скобками обозначены град или гололедные отложения с указанием их диаметра в мм.
Облачность - указаны через наклонную черту общая и нижняя облачность в баллах и высота нижней границы облаков в метрах; квадратными скобками обозначены формы облаков: Ci - перистые, Cs - перисто-слоистые, Cc - перисто-кучевые, Ac - высококучевые, As - высокослоистые, Sc - слоисто-кучевые, Ns - слоисто-дождевые, Cu - кучевые, Cb - кучево-дождевые. Подробнее классификацию облаков см. в Атласе облаков (PDF).
T - Температура воздуха - температура, измеренная на высоте 2 м над землей.
Td - Температура точки росы - температура, при понижении до которой содержащийся в воздухе водяной пар достигнет насыщения.
f - Относительная влажность воздуха - влажноcть воздуха, измеренная на высоте 2 м над землей.
Te - Эффективная температура - температура, которую ощущает одетый по сезону человек в тени. Характеристика душности погоды. При расчете учитывается влияние влажности воздуха и скорости ветра на теплоощущения человека.
Tes - Эффективная температура на солнце - температура, которую ощущает человек, с поправкой на солнечный нагрев. Характеристика знойности погоды. Зависит от высоты солнца над горизонтом, облачности и скорости ветра. Ночью, в пасмурную погоду, а также при ветре 12 м/с и более поправка равна нулю.
P - Атмосферное давление - приведенное к уровню моря атмосферное давление.
Po - Атмосферное давление - измеренное на уровне метеостанции атмосферное давление.
Tmin - Минимальная температура - минимум температуры воздуха на высоте 2 м над землей.
Tmax - Максимальная температура - максимум температуры воздуха на высоте 2 м над землей.
R - Количество осадков - Количество выпавших осадков за период времени, мм. При наведении курсора мыши на число - период времени, за который выпало указанное количество осадков.
R24 - Количество осадков - Количество выпавших осадков за 24 часа, мм.
S - Снежный покров - Высота снежного покрова, см. При наведении курсора мыши на число - состояние снежного покрова и степень покрытия местности в баллах.